| time (UTC) | temp F | wind direction | speed MPH | gust MPH | rain 1hr in | rain 24hr in | rain mn in | humidity % | barometer mb |
| 20260906164845 | 78 | 86 | 0.0 | 4.0 | 0.00 | 0.00 | 0.00 | 63 | 1020.8 |
| 20260906163834 | 78 | 81 | 0.0 | 2.0 | 0.00 | 0.00 | 0.00 | 62 | 1020.9 |
| 20260906162841 | 77 | 81 | 0.0 | 4.0 | 0.00 | 0.00 | 0.00 | 63 | 1021.0 |
| 20260906161833 | 77 | 81 | 0.0 | 4.0 | 0.00 | 0.00 | 0.00 | 64 | 1020.9 |
| 20260906160843 | 76 | 81 | 0.0 | 2.0 | 0.00 | 0.00 | 0.00 | 64 | 1021.0 |
| 20260906155832 | 76 | 81 | 3.0 | 5.0 | 0.00 | 0.00 | 0.00 | 66 | 1021.0 |
| 20260906154840 | 75 | 79 | 0.0 | 2.0 | 0.00 | 0.00 | 0.00 | 67 | 1021.0 |
| 20260906153834 | 75 | 79 | 0.0 | 2.0 | 0.00 | 0.00 | 0.00 | 66 | 1021.1 |
| 20260906152903 | 74 | 79 | 3.0 | 4.0 | 0.00 | 0.00 | 0.00 | 67 | 1021.1 |
| 20260906151830 | 74 | 70 | 2.0 | 6.0 | 0.00 | 0.00 | 0.00 | 71 | 1021.2 |
| 20260906150900 | 73 | 62 | 0.0 | 0.0 | 0.00 | 0.00 | 0.00 | 69 | 1021.3 |
| 20260906145830 | 72 | 58 | 0.0 | 0.0 | 0.00 | 0.00 | 0.00 | 70 | 1021.3 |
| 20260906144838 | 71 | 58 | 0.0 | 0.0 | 0.00 | 0.00 | 0.00 | 73 | 1021.4 |
| 20260906143847 | 70 | 58 | 0.0 | 0.0 | 0.00 | 0.00 | 0.00 | 76 | 1021.5 |
| 20260906142835 | 69 | 58 | 0.0 | 0.0 | 0.00 | 0.00 | 0.00 | 78 | 1021.4 |
| 20260906141848 | 68 | 58 | 0.0 | 0.0 | 0.00 | 0.00 | 0.00 | 82 | 1021.4 |
| 20260906140836 | 66 | 58 | 0.0 | 0.0 | 0.00 | 0.00 | 0.00 | 84 | 1021.4 |
| 20260906135905 | 65 | 58 | 0.0 | 0.0 | 0.00 | 0.00 | 0.00 | 89 | 1021.4 |
| 20260906134832 | 63 | 58 | 0.0 | 0.0 | 0.00 | 0.00 | 0.00 | 93 | 1021.5 |
| 20260906133904 | 61 | 58 | 0.0 | 0.0 | 0.00 | 0.00 | 0.00 | 94 | 1021.5 |
| 20260906132831 | 60 | 58 | 0.0 | 0.0 | 0.00 | 0.00 | 0.00 | 95 | 1021.6 |
| 20260906131839 | 59 | 58 | 0.0 | 0.0 | 0.00 | 0.00 | 0.00 | 95 | 1021.5 |
| 20260906130848 | 58 | 58 | 0.0 | 0.0 | 0.00 | 0.00 | 0.00 | 95 | 1021.5 |
| 20260906125839 | 56 | 58 | 0.0 | 0.0 | 0.00 | 0.00 | 0.00 | 95 | 1021.4 |
| 20260906124848 | 54 | 58 | 0.0 | 0.0 | 0.00 | 0.00 | 0.00 | 94 | 1021.2 |
| 20260906123837 | 53 | 58 | 0.0 | 0.0 | 0.00 | 0.00 | 0.00 | 94 | 1021.2 |
| 20260906122844 | 52 | 58 | 0.0 | 0.0 | 0.00 | 0.00 | 0.00 | 94 | 1021.2 |
| 20260906121837 | 51 | 58 | 0.0 | 0.0 | 0.00 | 0.00 | 0.00 | 93 | 1021.2 |
| 20260906120907 | 51 | 58 | 0.0 | 0.0 | 0.00 | 0.00 | 0.00 | 93 | 1021.3 |
| 20260906115834 | 51 | 58 | 0.0 | 0.0 | 0.00 | 0.00 | 0.00 | 93 | 1021.2 |
| 20260906114843 | 51 | 58 | 0.0 | 0.0 | 0.00 | 0.00 | 0.00 | 93 | 1021.1 |
| 20260906113837 | 51 | 58 | 0.0 | 0.0 | 0.00 | 0.00 | 0.00 | 93 | 1021.0 |
| 20260906112845 | 51 | 58 | 0.0 | 0.0 | 0.00 | 0.00 | 0.00 | 93 | 1021.0 |
| 20260906111833 | 51 | 58 | 0.0 | 0.0 | 0.00 | 0.00 | 0.00 | 93 | 1020.8 |
| 20260906110847 | 51 | 58 | 0.0 | 0.0 | 0.00 | 0.00 | 0.00 | 92 | 1020.8 |
| 20260906105834 | 51 | 58 | 0.0 | 0.0 | 0.00 | 0.00 | 0.00 | 92 | 1020.7 |
| 20260906104843 | 51 | 58 | 0.0 | 0.0 | 0.00 | 0.00 | 0.00 | 93 | 1020.6 |
| 20260906103833 | 51 | 58 | 0.0 | 0.0 | 0.00 | 0.00 | 0.00 | 92 | 1020.6 |
| 20260906102845 | 52 | 58 | 0.0 | 0.0 | 0.00 | 0.00 | 0.00 | 92 | 1020.6 |
| 20260906101834 | 52 | 58 | 0.0 | 0.0 | 0.00 | 0.00 | 0.00 | 92 | 1020.5 |
| 20260906100844 | 52 | 58 | 0.0 | 0.0 | 0.00 | 0.00 | 0.00 | 92 | 1020.5 |
| 20260906095831 | 52 | 58 | 0.0 | 0.0 | 0.00 | 0.00 | 0.00 | 92 | 1020.4 |
| 20260906094844 | 52 | 58 | 0.0 | 0.0 | 0.00 | 0.00 | 0.00 | 92 | 1020.3 |
| 20260906093834 | 52 | 58 | 0.0 | 0.0 | 0.00 | 0.00 | 0.00 | 92 | 1020.3 |
| 20260906092843 | 52 | 58 | 0.0 | 0.0 | 0.00 | 0.00 | 0.00 | 92 | 1020.3 |
| 20260906091835 | 52 | 58 | 0.0 | 0.0 | 0.00 | 0.00 | 0.00 | 92 | 1020.3 |
| 20260906090845 | 53 | 58 | 0.0 | 0.0 | 0.00 | 0.00 | 0.00 | 92 | 1020.4 |
| 20260906085833 | 53 | 58 | 0.0 | 0.0 | 0.00 | 0.00 | 0.00 | 92 | 1020.5 |
| 20260906084902 | 53 | 58 | 0.0 | 0.0 | 0.00 | 0.00 | 0.00 | 92 | 1020.6 |
| 20260906083834 | 53 | 58 | 0.0 | 0.0 | 0.00 | 0.00 | 0.00 | 92 | 1020.5 |
| 20260906082843 | 53 | 58 | 0.0 | 0.0 | 0.00 | 0.00 | 0.00 | 92 | 1020.4 |
| 20260906081831 | 53 | 58 | 0.0 | 0.0 | 0.00 | 0.00 | 0.00 | 92 | 1020.2 |
| 20260906080842 | 54 | 58 | 0.0 | 0.0 | 0.00 | 0.00 | 0.00 | 92 | 1020.2 |
| 20260906075834 | 54 | 58 | 0.0 | 0.0 | 0.00 | 0.00 | 0.00 | 92 | 1020.2 |
| 20260906074903 | 54 | 58 | 0.0 | 0.0 | 0.00 | 0.00 | 0.00 | 91 | 1020.1 |
| 20260906073831 | 54 | 58 | 0.0 | 0.0 | 0.00 | 0.00 | 0.00 | 91 | 1020.1 |
| 20260906072840 | 54 | 58 | 0.0 | 0.0 | 0.00 | 0.00 | 0.00 | 91 | 1020.1 |
| 20260906071833 | 54 | 58 | 0.0 | 0.0 | 0.00 | 0.00 | 0.00 | 91 | 1020.0 |
| 20260906070843 | 55 | 58 | 0.0 | 0.0 | 0.00 | 0.00 | 0.00 | 91 | 1020.0 |
| 20260906065850 | 55 | 58 | 0.0 | 0.0 | 0.00 | 0.00 | 0.00 | 91 | 1020.1 |
| 20260906064837 | 55 | 58 | 0.0 | 0.0 | 0.00 | 0.00 | 0.00 | 91 | 1019.9 |
| 20260906063831 | 55 | 58 | 0.0 | 0.0 | 0.00 | 0.00 | 0.00 | 91 | 1019.9 |
| 20260906062859 | 56 | 58 | 0.0 | 0.0 | 0.00 | 0.00 | 0.00 | 91 | 1019.9 |
| 20260906061847 | 56 | 58 | 0.0 | 0.0 | 0.00 | 0.00 | 0.00 | 91 | 1019.7 |
| 20260906060837 | 56 | 58 | 0.0 | 0.0 | 0.00 | 0.00 | 0.00 | 91 | 1019.8 |
| 20260906055829 | 56 | 58 | 0.0 | 0.0 | 0.00 | 0.00 | 0.00 | 90 | 1019.7 |
| 20260906054837 | 57 | 58 | 0.0 | 0.0 | 0.00 | 0.00 | 0.00 | 91 | 1019.5 |
| 20260906053847 | 57 | 58 | 0.0 | 0.0 | 0.00 | 0.00 | 0.00 | 90 | 1019.5 |
| 20260906052835 | 57 | 58 | 0.0 | 0.0 | 0.00 | 0.00 | 0.00 | 90 | 1019.4 |
| 20260906051908 | 57 | 58 | 0.0 | 0.0 | 0.00 | 0.00 | 0.00 | 90 | 1019.4 |
| 20260906050836 | 58 | 58 | 0.0 | 0.0 | 0.00 | 0.00 | 0.00 | 90 | 1019.3 |
| 20260906045904 | 58 | 58 | 0.0 | 0.0 | 0.00 | 0.00 | 0.00 | 90 | 1019.1 |
| 20260906044831 | 58 | 58 | 0.0 | 0.0 | 0.00 | 0.00 | 0.00 | 89 | 1019.1 |
| 20260906043843 | 59 | 58 | 0.0 | 0.0 | 0.00 | 0.00 | 0.00 | 89 | 1019.1 |
| 20260906042851 | 59 | 58 | 0.0 | 0.0 | 0.00 | 0.00 | 0.00 | 89 | 1019.3 |
| 20260906041837 | 59 | 58 | 0.0 | 0.0 | 0.00 | 0.00 | 0.00 | 88 | 1019.3 |
| 20260906040846 | 60 | 58 | 0.0 | 0.0 | 0.00 | 0.00 | 0.00 | 88 | 1019.3 |
| 20260906035838 | 60 | 58 | 0.0 | 0.0 | 0.00 | 0.00 | 0.00 | 88 | 1019.1 |
| 20260906034846 | 61 | 58 | 0.0 | 0.0 | 0.00 | 0.00 | 0.00 | 88 | 1018.9 |
| 20260906033835 | 61 | 58 | 0.0 | 0.0 | 0.00 | 0.00 | 0.00 | 87 | 1018.9 |
| 20260906032844 | 61 | 58 | 0.0 | 0.0 | 0.00 | 0.00 | 0.00 | 87 | 1018.9 |
| 20260906031835 | 62 | 58 | 0.0 | 0.0 | 0.00 | 0.00 | 0.00 | 87 | 1019.0 |
| 20260906030845 | 62 | 58 | 0.0 | 0.0 | 0.00 | 0.00 | 0.00 | 87 | 1019.0 |
| 20260906025833 | 63 | 58 | 0.0 | 0.0 | 0.00 | 0.00 | 0.00 | 87 | 1018.9 |
| 20260906024840 | 63 | 58 | 0.0 | 0.0 | 0.00 | 0.00 | 0.00 | 86 | 1018.8 |
| 20260906023835 | 64 | 58 | 0.0 | 0.0 | 0.00 | 0.00 | 0.00 | 86 | 1018.8 |
| 20260906022842 | 64 | 58 | 0.0 | 0.0 | 0.00 | 0.00 | 0.00 | 86 | 1018.7 |
| 20260906021828 | 65 | 58 | 0.0 | 0.0 | 0.00 | 0.00 | 0.00 | 85 | 1018.7 |
| 20260906020838 | 65 | 58 | 0.0 | 0.0 | 0.00 | 0.00 | 0.00 | 85 | 1018.7 |
| 20260906015831 | 66 | 58 | 0.0 | 0.0 | 0.00 | 0.01 | 0.00 | 85 | 1018.5 |
| 20260906014900 | 66 | 58 | 0.0 | 0.0 | 0.00 | 0.01 | 0.00 | 84 | 1018.4 |
| 20260906013848 | 67 | 58 | 0.0 | 0.0 | 0.00 | 0.01 | 0.00 | 83 | 1018.4 |
| 20260906012836 | 67 | 58 | 0.0 | 0.0 | 0.00 | 0.01 | 0.00 | 83 | 1018.4 |
| 20260906011828 | 68 | 58 | 0.0 | 0.0 | 0.00 | 0.01 | 0.00 | 81 | 1018.3 |
| 20260906010837 | 69 | 58 | 0.0 | 0.0 | 0.00 | 0.01 | 0.00 | 80 | 1018.3 |
| 20260906005844 | 69 | 58 | 1.0 | 3.0 | 0.00 | 0.01 | 0.00 | 79 | 1018.1 |
| 20260906004852 | 70 | 58 | 0.0 | 2.0 | 0.00 | 0.01 | 0.00 | 78 | 1018.0 |
| 20260906003843 | 70 | 58 | 0.0 | 0.0 | 0.00 | 0.01 | 0.00 | 77 | 1017.9 |
| 20260906002829 | 70 | 58 | 0.0 | 0.0 | 0.00 | 0.01 | 0.00 | 77 | 1017.9 |
| 20260906001837 | 71 | 58 | 1.0 | 6.0 | 0.00 | 0.01 | 0.00 | 77 | 1017.7 |
| 20260906000830 | 71 | 60 | 1.0 | 3.0 | 0.00 | 0.01 | 0.00 | 77 | 1017.6 |
| 20260905235858 | 72 | 60 | 0.0 | 0.0 | 0.00 | 0.03 | 0.00 | 75 | 1017.5 |
| 20260905234846 | 72 | 60 | 0.0 | 0.0 | 0.00 | 0.03 | 0.00 | 74 | 1017.4 |
| 20260905233835 | 73 | 60 | 0.0 | 0.0 | 0.00 | 0.03 | 0.00 | 71 | 1017.4 |
| 20260905232841 | 74 | 60 | 0.0 | 0.0 | 0.00 | 0.03 | 0.00 | 70 | 1017.4 |
| 20260905231834 | 75 | 60 | 0.0 | 0.0 | 0.00 | 0.03 | 0.00 | 67 | 1017.4 |
| 20260905230843 | 76 | 60 | 0.0 | 0.0 | 0.00 | 0.03 | 0.00 | 65 | 1017.5 |
| 20260905225831 | 77 | 60 | 0.0 | 0.0 | 0.00 | 0.03 | 0.00 | 60 | 1017.4 |
| 20260905224842 | 77 | 60 | 0.0 | 4.0 | 0.00 | 0.03 | 0.00 | 59 | 1017.4 |
| 20260905223851 | 77 | 58 | 1.0 | 4.0 | 0.00 | 0.03 | 0.00 | 59 | 1017.3 |
| 20260905222838 | 77 | 57 | 0.0 | 2.0 | 0.00 | 0.03 | 0.00 | 57 | 1017.5 |
| 20260905221907 | 77 | 57 | 0.0 | 0.0 | 0.00 | 0.03 | 0.00 | 62 | 1017.4 |
| 20260905220835 | 78 | 57 | 0.0 | 0.0 | 0.00 | 0.03 | 0.00 | 59 | 1017.4 |
| 20260905215845 | 80 | 57 | 0.0 | 0.0 | 0.00 | 0.03 | 0.00 | 61 | 1017.5 |
| 20260905214832 | 81 | 57 | 0.0 | 0.0 | 0.00 | 0.03 | 0.00 | 54 | 1017.6 |
| 20260905213841 | 81 | 57 | 0.0 | 5.0 | 0.00 | 0.03 | 0.00 | 55 | 1017.5 |
| 20260905212834 | 82 | 58 | 0.0 | 4.0 | 0.00 | 0.03 | 0.00 | 58 | 1017.5 |
| 20260905211843 | 81 | 61 | 0.0 | 0.0 | 0.00 | 0.03 | 0.00 | 52 | 1017.4 |
| 20260905210833 | 80 | 61 | 1.0 | 5.0 | 0.00 | 0.03 | 0.00 | 54 | 1017.3 |
| 20260905205841 | 80 | 59 | 1.0 | 3.0 | 0.00 | 0.03 | 0.00 | 54 | 1017.3 |
| 20260905204854 | 80 | 59 | 0.0 | 3.0 | 0.00 | 0.03 | 0.00 | 54 | 1017.2 |
| 20260905203903 | 81 | 59 | 3.0 | 6.0 | 0.00 | 0.03 | 0.00 | 53 | 1017.4 |
| 20260905202850 | 81 | 57 | 2.0 | 5.0 | 0.00 | 0.03 | 0.00 | 54 | 1017.4 |
| 20260905201838 | 80 | 51 | 1.0 | 5.0 | 0.00 | 0.03 | 0.00 | 54 | 1017.5 |
| 20260905200827 | 80 | 60 | 1.0 | 5.0 | 0.00 | 0.03 | 0.00 | 56 | 1017.6 |
| 20260905195901 | 79 | 35 | 0.0 | 4.0 | 0.00 | 0.03 | 0.00 | 60 | 1017.6 |
| 20260905194829 | 80 | 35 | 1.0 | 10.0 | 0.00 | 0.03 | 0.00 | 57 | 1017.6 |
| 20260905193839 | 81 | 103 | 3.0 | 8.0 | 0.00 | 0.03 | 0.00 | 58 | 1017.5 |
| 20260905192848 | 80 | 56 | 1.0 | 6.0 | 0.00 | 0.03 | 0.00 | 56 | 1017.7 |
| 20260905191840 | 79 | 45 | 1.0 | 10.0 | 0.00 | 0.03 | 0.00 | 58 | 1017.8 |
| 20260905190850 | 79 | 61 | 0.0 | 5.0 | 0.00 | 0.03 | 0.00 | 59 | 1017.7 |
| 20260905185837 | 79 | 56 | 3.0 | 6.0 | 0.00 | 0.03 | 0.00 | 59 | 1017.8 |
| 20260905184846 | 78 | 54 | 0.0 | 2.0 | 0.00 | 0.03 | 0.00 | 60 | 1017.7 |
| 20260905183840 | 78 | 54 | 0.0 | 5.0 | 0.00 | 0.03 | 0.00 | 62 | 1018.0 |
| 20260905182828 | 78 | 43 | 2.0 | 10.0 | 0.00 | 0.03 | 0.00 | 62 | 1018.0 |
| 20260905181857 | 78 | 52 | 0.0 | 4.0 | 0.00 | 0.03 | 0.00 | 62 | 1018.3 |
| 20260905180845 | 78 | 47 | 1.0 | 4.0 | 0.00 | 0.03 | 0.00 | 62 | 1018.3 |
| 20260905175836 | 78 | 46 | 1.0 | 9.0 | 0.00 | 0.03 | 0.00 | 62 | 1018.4 |
| 20260905174845 | 78 | 63 | 3.0 | 6.0 | 0.00 | 0.03 | 0.00 | 64 | 1018.2 |
| 20260905173834 | 77 | 62 | 1.0 | 5.0 | 0.00 | 0.03 | 0.00 | 64 | 1018.3 |
| 20260905172842 | 77 | 58 | 0.0 | 2.0 | 0.00 | 0.03 | 0.00 | 66 | 1018.5 |
| 20260905171834 | 76 | 58 | 0.0 | 2.0 | 0.00 | 0.03 | 0.00 | 66 | 1018.5 |
| 20260905170844 | 76 | 58 | 1.0 | 6.0 | 0.00 | 0.03 | 0.00 | 67 | 1018.7 |
| 20260905165833 | 76 | 64 | 3.0 | 6.0 | 0.00 | 0.03 | 0.00 | 67 | 1018.8 |